Location: Gammelsbach
(49.5261°N, 8.9630°E)
Time: 21:28:01
(UTC+00:00)

PSLV R/B - Pass Details

Date: 17 June 2025
Orbit: 588 x 681 km, 97.9° (Epoch: 16 July)

Event Time Altitude Azimuth Distance (km) Brightness Sun altitude
Rises 23:36:08 0° 9° (N) 2,887 8.7 -17.0°
Reaches altitude 10° 23:38:20 10° 4° (N) 1,991 7.5 -17.0°
Maximum altitude 23:42:32 50° 290° (WNW) 805 4.2 -17.0°
Enters shadow 23:44:55 24° 225° (SW) 1,321 4.8 -16.9°
